Location: Our Prairie Sky
(41.4667°N, 87.7000°W)
Time: 06:18:00
(UTC-05:00)

ISS - Visible Passes

Search period start: 23 September 2019 00:00
Search period end: 03 October 2019 00:00
Orbit: 411 x 421 km, 51.6° (Epoch: 23 September)

Date Brightness Start Highest point End Pass type
(mag) Time Alt. Az. Time Alt. Az. Time Alt. Az.
23 Sep -2.4 19:45:39 10° W 19:48:47 36° NNW 19:51:54 10° NE visible
23 Sep -0.6 21:24:10 10° NW 21:25:03 13° NNW 21:25:03 13° NNW visible
24 Sep -1.4 20:35:12 10° WNW 20:37:31 17° NNW 20:38:33 15° N visible
25 Sep -1.5 19:46:13 10° WNW 19:48:49 21° NNW 19:51:27 10° NE visible
25 Sep -0.4 21:24:35 10° NNW 21:24:51 11° NNW 21:24:51 11° NNW visible
26 Sep -1.2 20:35:49 10° NW 20:37:44 14° N 20:38:13 14° N visible
27 Sep -1.2 19:46:53 10° NW 19:48:58 15° N 19:51:04 10° NNE visible
27 Sep -0.3 21:24:26 10° NNW 21:24:26 10° NNW 21:24:26 10° NNW visible
28 Sep -1.3 20:35:55 10° NNW 20:37:43 15° N 20:37:43 15° N visible
29 Sep -1.3 19:47:15 10° NNW 19:49:09 14° N 19:51:00 10° NE visible
30 Sep -1.3 18:58:25 10° NW 19:00:21 14° N 19:02:17 10° NNE visible
30 Sep -1.4 20:35:31 10° NNW 20:37:10 18° N 20:37:10 18° N visible
01 Oct -1.6 19:47:03 10° NNW 19:49:17 17° NNE 19:50:27 14° NE visible
02 Oct -1.4 18:58:28 10° NNW 19:00:28 15° N 19:02:28 10° NE visible
02 Oct -1.7 20:34:54 10° NW 20:36:38 23° NNW 20:36:38 23° NNW visible
